Location: Newark
(41.7772°N, 74.7403°W)
Time: 05:24:46
(UTC+00:00)

Vanguard 3 - Visible Passes

Search period start: 06 June 2020 00:00
Search period end: 16 June 2020 00:00
Orbit: 509 x 3261 km, 33.3° (Epoch: 05 June)

Date Brightness Start Highest point End Pass type
(mag) Time Alt. Az. Time Alt. Az. Time Alt. Az.
06 Jun 10.6 03:35:55 25° SE 03:35:55 25° SE 03:48:34 10° E visible
06 Jun 10.0 05:40:15 30° SSW 05:50:07 48° SSE 06:04:19 10° E visible
06 Jun 9.6 07:46:58 10° WSW 08:05:15 61° S 08:16:50 10° ESE visible
07 Jun 10.9 02:23:22 14° ESE 02:23:22 14° ESE 02:28:59 10° ESE visible
07 Jun 10.2 04:27:37 32° S 04:33:53 39° SSE 04:48:57 10° E visible
07 Jun 9.8 06:31:52 14° WSW 06:49:09 58° SSE 07:02:43 10° E visible
07 Jun 9.5 08:46:43 10° W 09:04:00 59° S 09:14:28 10° ESE visible
08 Jun 10.5 03:03:20 10° S 03:17:57 28° SE 03:32:19 10° E visible
08 Jun 10.0 05:16:39 16° SW 05:32:44 52° SSE 05:48:00 10° E visible
08 Jun 9.7 07:29:18 10° WSW 07:48:13 63° S 08:00:45 10° ESE visible
09 Jun 10.7 01:52:08 10° SSE 02:02:32 18° SE 02:13:24 10° E visible
09 Jun 10.2 03:59:04 10° SSW 04:16:22 42° SSE 04:32:28 10° E visible
09 Jun 9.8 06:12:27 10° WSW 06:31:53 61° S 06:46:27 10° E visible
09 Jun 9.6 08:29:04 10° W 08:47:04 59° SSW 08:58:23 10° ESE visible
10 Jun 10.4 02:45:29 10° SSW 03:00:23 32° SE 03:15:49 10° E visible
10 Jun 10.0 04:56:28 10° SW 05:15:17 55° SSE 05:31:31 10° E visible
10 Jun 9.7 07:11:42 10° WSW 07:31:05 64° S 07:44:32 10° ESE visible
11 Jun 10.6 01:33:49 10° S 01:45:00 20° SE 01:57:14 10° E visible
11 Jun 10.1 03:41:34 10° SW 03:58:47 46° SSE 04:15:48 10° E visible
11 Jun 9.9 05:54:58 10° WSW 06:14:33 63° S 06:30:04 10° E visible
11 Jun 9.7 08:11:27 10° W 08:30:01 59° SSW 08:42:14 10° ESE visible
12 Jun 10.3 02:27:56 10° SSW 02:42:46 35° SE 02:59:03 10° E visible
12 Jun 10.0 04:39:07 10° SW 04:57:46 58° SSE 05:14:55 10° E visible
12 Jun 9.8 06:54:13 10° W 07:13:51 65° S 07:28:14 10° ESE visible
13 Jun 10.5 01:15:58 10° S 01:27:27 23° SE 01:40:41 10° E visible
13 Jun 10.1 03:24:18 10° SW 03:41:11 49° SSE 03:59:00 10° E visible
13 Jun 9.9 05:37:39 10° WSW 05:57:07 65° S 06:13:34 10° E visible
13 Jun 9.8 07:53:55 10° W 08:12:50 58° SSW 08:25:56 10° ESE visible
14 Jun 10.2 02:10:39 10° SSW 02:25:10 37° SE 02:42:07 10° E visible
14 Jun 10.0 04:21:57 10° WSW 04:40:13 60° SSE 04:58:11 10° E visible
14 Jun 9.9 06:36:51 10° W 06:56:30 64° S 07:11:48 10° ESE visible
15 Jun 10.4 00:58:29 10° S 01:09:55 25° SE 01:23:50 10° E visible
15 Jun 10.0 03:07:14 10° SW 03:23:35 52° SSE 03:42:02 10° E visible
15 Jun 9.9 05:20:29 10° WSW 05:39:38 66° S 05:56:56 10° E visible
15 Jun 9.9 07:36:27 10° W 07:55:33 57° SSW 08:09:31 10° SE visible
